TimePST,TemperatureF,Dew PointF,Humidity,Sea Level PressureIn,VisibilityMPH,Wind Direction,Wind SpeedMPH,Gust SpeedMPH,PrecipitationIn,Events,Conditions,WindDirDegrees,DateUTC
12:00 AM,44.6,39.2,81,29.66,10.0,South,16.1,-,N/A,Rain,Light Rain Showers,180,2012-11-18 08:00:00
1:00 AM,44.6,39.2,81,29.66,15.0,SSW,15.0,-,N/A,,Mostly Cloudy,200,2012-11-18 09:00:00
1:16 AM,44.6,39.2,81,29.67,10.0,South,17.3,-,N/A,Rain,Light Rain Showers,190,2012-11-18 09:16:00
2:00 AM,44.6,39.2,81,29.68,10.0,South,18.4,26.5,N/A,Rain,Light Rain Showers,180,2012-11-18 10:00:00
3:00 AM,46.4,39.2,76,29.69,10.0,South,18.4,24.2,N/A,Rain,Light Rain Showers,190,2012-11-18 11:00:00
4:00 AM,46,38,67,29.70,15,SSW,16.1,,,Rain,Light Rain Showers,210,2012-11-18 12:00:00
4:00 AM,46.4,39.2,76,29.70,15.0,SSW,15.0,23.0,N/A,,Overcast,210,2012-11-18 12:00:00
5:00 AM,46.4,39.2,76,29.71,15.0,South,17.3,27.6,N/A,,Overcast,190,2012-11-18 13:00:00
6:00 AM,44.6,39.2,81,29.70,15.0,South,18.4,27.6,N/A,,Overcast,180,2012-11-18 14:00:00
7:00 AM,44.6,39.2,81,29.71,15.0,South,11.5,20.7,N/A,,Overcast,190,2012-11-18 15:00:00
8:00 AM,46.4,39.2,76,29.71,15.0,South,11.5,-,N/A,,Overcast,170,2012-11-18 16:00:00
9:00 AM,46.4,39.2,76,29.71,15.0,South,6.9,-,N/A,,Overcast,170,2012-11-18 17:00:00
10:00 AM,47,38,62,29.71,15,SSE,9.2,,,,Overcast,150,2012-11-18 18:00:00
10:00 AM,46.4,37.4,71,29.71,15.0,SE,9.2,-,N/A,,Overcast,140,2012-11-18 18:00:00
10:16 AM,46.4,39.2,76,29.71,15.0,East,4.6,-,N/A,Rain,Light Rain Showers,90,2012-11-18 18:16:00
11:00 AM,46.4,39.2,76,29.71,15.0,SSE,5.8,-,N/A,,Overcast,150,2012-11-18 19:00:00
12:00 PM,48.2,39.2,71,29.70,20.0,SE,12.7,19.6,N/A,,Overcast,130,2012-11-18 20:00:00
1:00 PM,48.2,39.2,71,29.70,20.0,ESE,8.1,-,N/A,,Overcast,120,2012-11-18 21:00:00
1:45 PM,46.4,41.0,81,29.68,10.0,East,6.9,-,N/A,Rain,Light Rain Showers,90,2012-11-18 21:45:00
2:00 PM,44.6,42.8,93,29.68,20.0,ENE,8.1,-,N/A,Rain,Rain Showers,60,2012-11-18 22:00:00
3:00 PM,44.6,42.8,93,29.65,20.0,NNE,5.8,-,N/A,Rain,Light Rain Showers,30,2012-11-18 23:00:00
4:00 PM,44,42,89,29.62,15,NE,5.8,,,Rain,Light Rain Showers,40,2012-11-19 00:00:00
4:00 PM,44.6,41.0,87,29.61,15.0,NNE,6.9,-,N/A,Rain,Light Rain Showers,20,2012-11-19 00:00:00
5:00 PM,42.8,41.0,93,29.58,10.0,North,3.5,-,N/A,Rain,Light Rain Showers,10,2012-11-19 01:00:00
6:00 PM,42.8,41.0,93,29.53,10.0,North,2.3,-,N/A,Rain,Light Rain Showers,350,2012-11-19 02:00:00
7:00 PM,42.8,41.0,93,29.48,7.0,NNE,5.8,-,N/A,Rain,Light Rain,20,2012-11-19 03:00:00
8:00 PM,44.6,41.0,87,29.50,10.0,East,5.8,-,N/A,Rain,Light Rain,100,2012-11-19 04:00:00
9:00 PM,48.2,41.0,76,29.52,10.0,SSE,16.1,24.2,N/A,,Overcast,160,2012-11-19 05:00:00
9:27 PM,50.0,41.0,71,29.53,15.0,SSE,20.7,32.2,N/A,,Overcast,160,2012-11-19 05:27:00
10:00 PM,51,41,59,29.53,15,SSE,19.6,,,Rain,Light Rain,160,2012-11-19 06:00:00
10:00 PM,50.0,41.0,71,29.53,15.0,SSE,20.7,33.4,N/A,,Overcast,160,2012-11-19 06:00:00
11:00 PM,50.0,42.8,76,29.52,15.0,SSE,21.9,27.6,N/A,,Overcast,150,2012-11-19 07:00:00